Location: Hamlin Beach State Park
(43.3614°N, 77.9586°W)
Time: 00:09:01
(UTC-05:00)

ISS - Visible Passes

Search period start: 19 November 2017 00:00
Search period end: 29 November 2017 00:00
Orbit: 402 x 407 km, 51.6° (Epoch: 19 November)

Date Brightness Start Highest point End Pass type
(mag) Time Alt. Az. Time Alt. Az. Time Alt. Az.
19 Nov -1.0 04:52:26 12° SSE 04:52:26 12° SSE 04:52:48 10° SSE visible
26 Nov -2.1 18:33:55 10° SSW 18:35:45 24° S 18:35:45 24° S visible
27 Nov -1.9 17:42:25 10° S 17:44:41 17° SE 17:45:48 15° ESE visible
27 Nov -0.9 19:17:36 10° WSW 19:18:28 17° WSW 19:18:28 17° WSW visible
28 Nov -3.9 18:25:12 10° SW 18:28:25 73° SSE 18:28:25 73° SSE visible
